Change the Weather History Date:

Monday, June 3, 2013

  Actual Average Record
Temperature  
Mean Temperature 79 °F -  
Max Temperature 88 °F - 100 °F (2011)
Min Temperature 70 °F - 46 °F (1972)
Cooling Degree Days 14    
Month to date cooling degree days 42  
Year to date cooling degree days 292  
Since 1 June cooling degree days 42  
Growing Degree Days 28 (Base 50)    
Moisture  
Dew Point 67 °F    
Average Humidity 67    
Maximum Humidity 88    
Minimum Humidity 46    
Precipitation  
Precipitation 0.00 in - 2.27 in (2003)
Month to date precipitation 0.04  
Year to date precipitation 21.59  
Sea Level Pressure  
Sea Level Pressure 29.94 in    
Wind  
Wind Speed 2 mph (WNW)    
Max Wind Speed 9 mph    
Max Gust Speed -    
Visibility 8 miles    
Events      
T = Trace of Precipitation, MM = Missing Value Source: NWS Daily Summary

Daily Weather History Graph

Daily Weather History Graph

Search for Another Location

Airport or City:

Trip Planner

Search our weather history database for the weather conditions in past years. The results will help you decide how hot, cold, wet, or windy it might be!

Date:

Astronomy

Jun. 03, 2013 Rise Set
Actual Time 5:34 AM CDT 7:45 PM CDT
Civil Twilight 5:06 AM CDT 8:13 PM CDT
Nautical Twilight 4:31 AM CDT 8:48 PM CDT
Astronomical Twilight 3:54 AM CDT 9:25 PM CDT
Moon 2:17 AM CDT 3:27 PM CDT
Length of Visible Light 15h 07m
Length of Day
14h 11m
Waning Crescent, 22% of the Moon is Illuminated
Jun 3
Waning Crescent
Jun 8
New
Jun 16
First Quarter
Jun 23
Full
Jun 29
Last Quarter

Hourly Weather History & Observations

Time (CDT) Temp. Heat Index Dew Point Humidity Pressure Visibility Wind Dir Wind Speed Gust Speed Precip Events Conditions
12:15 AM - - - N/A% 29.94 in 2.5 mi Calm Calm - N/A   Overcast
12:35 AM - - - N/A% 29.94 in 0.5 mi Calm Calm - N/A   Overcast
12:55 AM - - - N/A% 29.93 in 0.5 mi Calm Calm - N/A   Overcast
1:15 AM - - - N/A% 29.94 in 1.2 mi Calm Calm - N/A   Overcast
1:35 AM - - - N/A% 29.94 in 6.0 mi Calm Calm - N/A   Overcast
1:55 AM - - - N/A% 29.93 in 10.0 mi Calm Calm - N/A   Scattered Clouds
2:15 AM - - - N/A% 29.93 in 10.0 mi Calm Calm - N/A   Clear
2:35 AM - - - N/A% 29.92 in 10.0 mi Calm Calm - N/A   Clear
2:55 AM - - - N/A% 29.92 in 10.0 mi Calm Calm - N/A   Clear
3:15 AM - - - N/A% 29.91 in 10.0 mi Calm Calm - N/A   Clear
3:35 AM - - - N/A% 29.91 in 10.0 mi Calm Calm - N/A   Clear
3:55 AM - - - N/A% 29.92 in 10.0 mi Calm Calm - N/A   Scattered Clouds
4:15 AM - - - N/A% 29.92 in 10.0 mi Calm Calm - N/A   Mostly Cloudy
4:35 AM - - - N/A% 29.92 in 10.0 mi Calm Calm - N/A   Overcast
4:55 AM - - - N/A% 29.92 in 6.0 mi Calm Calm - N/A   Overcast
5:15 AM - - - N/A% 29.92 in 4.0 mi Calm Calm - N/A   Overcast
5:35 AM - - - N/A% 29.93 in 3.0 mi Calm Calm - N/A   Overcast
5:55 AM - - - N/A% 29.93 in 0.2 mi Calm Calm - N/A   Overcast
6:15 AM - - - N/A% 29.94 in 0.8 mi Calm Calm - N/A   Overcast
6:35 AM - - - N/A% 29.94 in 0.5 mi Calm Calm - N/A   Overcast
6:55 AM - - - N/A% 29.95 in 0.5 mi Calm Calm - N/A   Overcast
7:15 AM 69.8 °F - 66.2 °F 88% 29.95 in 1.2 mi Calm Calm - N/A   Overcast
7:35 AM 69.8 °F - 66.2 °F 88% 29.96 in 5.0 mi Calm Calm - N/A   Overcast
7:55 AM 69.8 °F - 66.2 °F 88% 29.97 in 7.0 mi Calm Calm - N/A   Overcast
8:15 AM 71.6 °F - 66.2 °F 83% 29.97 in 10.0 mi Calm Calm - N/A   Overcast
8:35 AM 73.4 °F - 66.2 °F 78% 29.97 in 10.0 mi Calm Calm - N/A   Scattered Clouds
8:55 AM 75.2 °F - 66.2 °F 73% 29.98 in 10.0 mi Calm Calm - N/A   Clear
9:15 AM 75.2 °F - 66.2 °F 73% 29.98 in 10.0 mi Calm Calm - N/A   Clear
9:35 AM 77.0 °F - 66.2 °F 69% 29.98 in 10.0 mi Calm Calm - N/A   Clear
9:55 AM 78.8 °F - 66.2 °F 65% 29.98 in 10.0 mi North 3.5 mph - N/A   Clear
10:15 AM 80.6 °F 82.7 °F 66.2 °F 61% 29.99 in 10.0 mi North 6.9 mph - N/A   Partly Cloudy
10:35 AM 82.4 °F 85.4 °F 68.0 °F 62% 29.98 in 10.0 mi North 6.9 mph - N/A   Scattered Clouds
10:55 AM 82.4 °F 84.6 °F 66.2 °F 58% 29.98 in 10.0 mi NW 3.5 mph - N/A   Mostly Cloudy
11:15 AM 82.4 °F 84.6 °F 66.2 °F 58% 29.97 in 10.0 mi WSW 5.8 mph - N/A   Mostly Cloudy
11:35 AM 82.4 °F 84.6 °F 66.2 °F 58% 29.97 in 10.0 mi WNW 8.1 mph - N/A   Mostly Cloudy
11:55 AM 82.4 °F 84.6 °F 66.2 °F 58% 29.97 in 10.0 mi WNW 6.9 mph - N/A   Mostly Cloudy
12:15 PM 84.2 °F 85.6 °F 64.4 °F 51% 29.96 in 10.0 mi WNW 5.8 mph - N/A   Mostly Cloudy
12:35 PM 84.2 °F 85.6 °F 64.4 °F 51% 29.95 in 10.0 mi West 5.8 mph - N/A   Scattered Clouds
12:55 PM 84.2 °F 85.6 °F 64.4 °F 51% 29.95 in 10.0 mi SW 3.5 mph - N/A   Mostly Cloudy
1:15 PM 84.2 °F 87.3 °F 68.0 °F 58% 29.93 in 10.0 mi SW 6.9 mph - N/A   Mostly Cloudy
1:35 PM 84.2 °F 86.6 °F 66.2 °F 55% 29.93 in 10.0 mi West 4.6 mph - N/A   Mostly Cloudy
1:55 PM 84.2 °F 85.6 °F 64.4 °F 51% 29.93 in 10.0 mi NW 8.1 mph - N/A   Overcast
2:15 PM 84.2 °F 85.6 °F 64.4 °F 51% 29.93 in 10.0 mi WNW 8.1 mph - N/A   Mostly Cloudy
2:35 PM 80.6 °F 82.7 °F 66.2 °F 61% 29.92 in 10.0 mi WNW 9.2 mph - N/A   Overcast
2:55 PM 80.6 °F 82.7 °F 66.2 °F 61% 29.92 in 10.0 mi Calm Calm - N/A   Mostly Cloudy
3:15 PM 82.4 °F 83.9 °F 64.4 °F 54% 29.91 in 10.0 mi Calm Calm - N/A   Overcast
3:35 PM 84.2 °F 85.6 °F 64.4 °F 51% 29.91 in 10.0 mi NW 8.1 mph - N/A   Scattered Clouds
3:55 PM 87.8 °F 89.4 °F 64.4 °F 46% 29.91 in 10.0 mi WNW 9.2 mph - N/A   Scattered Clouds
4:15 PM 84.2 °F 85.6 °F 64.4 °F 51% 29.90 in 10.0 mi North 6.9 mph - N/A   Overcast
4:35 PM 82.4 °F 86.3 °F 69.8 °F 66% 29.91 in 10.0 mi East 8.1 mph - N/A   Overcast
4:55 PM 80.6 °F 83.9 °F 69.8 °F 70% 29.90 in 10.0 mi ESE 4.6 mph - N/A   Mostly Cloudy
5:15 PM 80.6 °F 83.9 °F 69.8 °F 70% 29.90 in 10.0 mi ESE 4.6 mph - N/A   Mostly Cloudy
5:35 PM 80.6 °F 83.9 °F 69.8 °F 70% 29.90 in 10.0 mi South 3.5 mph - N/A   Scattered Clouds
5:55 PM 80.6 °F 83.9 °F 69.8 °F 70% 29.90 in 10.0 mi SE 3.5 mph - N/A   Partly Cloudy
6:15 PM 80.6 °F 83.9 °F 69.8 °F 70% 29.91 in 10.0 mi SE 3.5 mph - N/A   Scattered Clouds
6:35 PM 80.6 °F 83.9 °F 69.8 °F 70% 29.91 in 10.0 mi SSE 5.8 mph - N/A   Scattered Clouds
6:55 PM 80.6 °F 83.9 °F 69.8 °F 70% 29.92 in 10.0 mi SE 3.5 mph - N/A   Partly Cloudy
7:15 PM 80.6 °F 83.9 °F 69.8 °F 70% 29.92 in 10.0 mi ESE 3.5 mph - N/A   Scattered Clouds
7:35 PM 78.8 °F - 69.8 °F 74% 29.93 in 10.0 mi Calm Calm - N/A   Partly Cloudy
7:55 PM 78.8 °F - 68.0 °F 69% 29.94 in 10.0 mi Calm Calm - N/A   Clear
8:15 PM 75.2 °F - 68.0 °F 78% 29.94 in 10.0 mi Calm Calm - N/A   Clear
8:35 PM 77.0 °F - 69.8 °F 78% 29.95 in 10.0 mi Calm Calm - N/A   Clear
8:55 PM 75.2 °F - 69.8 °F 83% 29.96 in 10.0 mi Calm Calm - N/A   Scattered Clouds
9:15 PM 75.2 °F - 68.0 °F 78% 29.97 in 10.0 mi Calm Calm - N/A   Overcast
9:35 PM 75.2 °F - 68.0 °F 78% 29.97 in 10.0 mi Calm Calm - N/A   Scattered Clouds
9:55 PM 75.2 °F - 68.0 °F 78% 29.97 in 10.0 mi Calm Calm - N/A   Clear
10:15 PM 73.4 °F - 68.0 °F 83% 29.98 in 10.0 mi Calm Calm - N/A   Clear
10:35 PM - - - N/A% 29.98 in 10.0 mi Calm Calm - N/A   Scattered Clouds
10:55 PM - - - N/A% 29.98 in 10.0 mi Calm Calm - N/A   Mostly Cloudy
11:15 PM - - - N/A% 29.98 in 10.0 mi Calm Calm - N/A   Overcast
11:35 PM - - - N/A% 29.98 in 10.0 mi Calm Calm - N/A   Overcast
11:55 PM - - - N/A% 29.97 in 10.0 mi Calm Calm - N/A   Mostly Cloudy